GPS BIIR-5 (PRN 28)

Last updated on June 16, 2019, 3:38 a.m. UTC

1 26407U 00040A   19166.32177707 -.00000088  00000-0  00000+0 0  9996
2 26407  56.2608 316.6633 0192251 275.9500 269.4213  2.00560453138615
UTC
Height (km)
Latitude
Longitude
Inclination
Orbital Period
UTC large
Height (km)
Speed (km/s)
/
Latitude / Longitude
Inclination (degrees)
Orbital Period (minutes)
Azimuth
Elevation
Range (km)
Doppler Factor
iOS Compass Heading
iOS Angle

Next 30 passes for location: Hong Kong

Rise time Rise Azimuth (degrees) Set time Set Azimuth (degrees) Duration Max altitude (degrees)

No matching passes for this satellites